Time,TemperatureF,DewpointF,PressureIn,WindDirection,WindDirectionDegrees,WindSpeedMPH,WindSpeedGustMPH,Humidity,HourlyPrecipIn,Conditions,Clouds,dailyrainin,SoftwareType,DateUTC
2013-01-12 00:01:00,37.3,20.0,30.11,NNE,15,2.0,5.0,49,0.00,,,0.00,weatherlink.com 1.10,2013-01-12 08:01:00,
2013-01-12 00:16:00,36.9,20.0,30.11,NNW,328,2.0,3.0,50,0.00,,,0.00,weatherlink.com 1.10,2013-01-12 08:16:00,
2013-01-12 00:31:00,36.6,19.0,30.11,North,356,3.0,5.0,50,0.00,,,0.00,weatherlink.com 1.10,2013-01-12 08:31:00,
2013-01-12 00:46:00,36.3,19.0,30.11,NNE,29,3.0,4.0,50,0.00,,,0.00,weatherlink.com 1.10,2013-01-12 08:46:00,
2013-01-12 01:01:00,36.6,19.0,30.11,NNW,335,2.0,6.0,49,0.00,,,0.00,weatherlink.com 1.10,2013-01-12 09:01:00,
2013-01-12 01:16:00,36.8,18.0,30.12,NE,38,2.0,4.0,47,0.00,,,0.00,weatherlink.com 1.10,2013-01-12 09:16:00,
2013-01-12 01:31:00,36.5,18.0,30.12,West,279,1.0,3.0,48,0.00,,,0.00,weatherlink.com 1.10,2013-01-12 09:31:00,
2013-01-12 01:46:00,34.4,18.0,30.12,West,279,0.0,0.0,51,0.00,,,0.00,weatherlink.com 1.10,2013-01-12 09:46:00,
2013-01-12 02:01:00,34.1,19.0,30.12,NNE,27,2.0,3.0,54,0.00,,,0.00,weatherlink.com 1.10,2013-01-12 10:01:00,
2013-01-12 02:16:00,34.2,19.0,30.11,NNW,340,2.0,3.0,54,0.00,,,0.00,weatherlink.com 1.10,2013-01-12 10:16:00,
2013-01-12 02:31:00,35.2,19.0,30.11,NNW,340,3.0,3.0,51,0.00,,,0.00,weatherlink.com 1.10,2013-01-12 10:31:00,
2013-01-12 02:46:00,35.8,18.0,30.11,NW,318,1.0,3.0,48,0.00,,,0.00,weatherlink.com 1.10,2013-01-12 10:46:00,
2013-01-12 03:01:00,35.6,18.0,30.11,NW,314,0.0,1.0,48,0.00,,,0.00,weatherlink.com 1.10,2013-01-12 11:01:00,
2013-01-12 03:16:00,33.6,17.0,30.11,East,91,0.0,0.0,51,0.00,,,0.00,weatherlink.com 1.10,2013-01-12 11:16:00,
2013-01-12 03:31:00,-999.0,-99.9,30.11,North,-999,-999.0,-999.0,-999,0.00,,,0.00,weatherlink.com 1.10,2013-01-12 11:31:00,
2013-01-12 03:46:00,-999.0,-99.9,30.11,North,-999,-999.0,-999.0,-999,0.00,,,0.00,weatherlink.com 1.10,2013-01-12 11:46:00,
2013-01-12 04:01:00,-999.0,-99.9,30.11,North,-999,-999.0,-999.0,-999,0.00,,,0.00,weatherlink.com 1.10,2013-01-12 12:01:00,
2013-01-12 04:16:00,-999.0,-99.9,30.11,North,-999,-999.0,-999.0,-999,0.00,,,0.00,weatherlink.com 1.10,2013-01-12 12:16:00,
2013-01-12 04:31:00,-999.0,-99.9,30.11,North,-999,-999.0,-999.0,-999,0.00,,,0.00,weatherlink.com 1.10,2013-01-12 12:31:00,
2013-01-12 04:47:00,-999.0,-99.9,30.11,North,-999,-999.0,-999.0,-999,0.00,,,0.00,weatherlink.com 1.10,2013-01-12 12:47:00,
2013-01-12 05:02:00,-999.0,-99.9,30.11,North,-999,-999.0,-999.0,-999,0.00,,,0.00,weatherlink.com 1.10,2013-01-12 13:02:00,
2013-01-12 05:17:00,-999.0,-99.9,30.12,North,-999,-999.0,-999.0,-999,0.00,,,0.00,weatherlink.com 1.10,2013-01-12 13:17:00,
2013-01-12 05:32:00,-999.0,-99.9,30.12,North,-999,-999.0,-999.0,-999,0.00,,,0.00,weatherlink.com 1.10,2013-01-12 13:32:00,
2013-01-12 05:47:00,-999.0,-99.9,30.13,North,-999,-999.0,-999.0,-999,0.00,,,0.00,weatherlink.com 1.10,2013-01-12 13:47:00,
2013-01-12 06:02:00,-999.0,-99.9,30.14,North,-999,-999.0,-999.0,-999,0.00,,,0.00,weatherlink.com 1.10,2013-01-12 14:02:00,
2013-01-12 06:17:00,-999.0,-99.9,30.14,North,-999,-999.0,-999.0,-999,0.00,,,0.00,weatherlink.com 1.10,2013-01-12 14:17:00,
2013-01-12 06:32:00,-999.0,-99.9,30.15,North,-999,-999.0,-999.0,-999,0.00,,,0.00,weatherlink.com 1.10,2013-01-12 14:32:00,
2013-01-12 06:47:00,-999.0,-99.9,30.15,North,-999,-999.0,-999.0,-999,0.00,,,0.00,weatherlink.com 1.10,2013-01-12 14:47:00,
2013-01-12 07:02:00,-999.0,-99.9,30.15,North,-999,-999.0,-999.0,-999,0.00,,,0.00,weatherlink.com 1.10,2013-01-12 15:02:00,
2013-01-12 07:17:00,-999.0,-99.9,30.16,North,-999,-999.0,-999.0,-999,0.00,,,0.00,weatherlink.com 1.10,2013-01-12 15:17:00,
2013-01-12 07:32:00,29.4,22.0,30.17,NE,50,0.0,0.0,75,0.00,,,0.00,weatherlink.com 1.10,2013-01-12 15:32:00,
2013-01-12 07:47:00,32.9,24.0,30.18,NE,50,0.0,1.0,70,0.00,,,0.00,weatherlink.com 1.10,2013-01-12 15:47:00,
2013-01-12 08:02:00,32.8,23.0,30.18,South,170,0.0,0.0,68,0.00,,,0.00,weatherlink.com 1.10,2013-01-12 16:02:00,
2013-01-12 08:17:00,33.6,24.0,30.19,NE,44,0.0,1.0,68,0.00,,,0.00,weatherlink.com 1.10,2013-01-12 16:17:00,
2013-01-12 08:32:00,34.9,24.0,30.20,NE,36,0.0,2.0,65,0.00,,,0.00,weatherlink.com 1.10,2013-01-12 16:32:00,
2013-01-12 08:47:00,37.6,25.0,30.20,NE,36,0.0,1.0,60,0.00,,,0.00,weatherlink.com 1.10,2013-01-12 16:47:00,
2013-01-12 09:02:00,38.8,24.0,30.20,SW,229,2.0,3.0,55,0.00,,,0.00,weatherlink.com 1.10,2013-01-12 17:02:00,
2013-01-12 09:18:00,40.0,24.0,30.20,East,84,0.0,2.0,53,0.00,,,0.00,weatherlink.com 1.10,2013-01-12 17:18:00,
2013-01-12 09:33:00,41.4,25.0,30.20,South,187,0.0,2.0,53,0.00,,,0.00,weatherlink.com 1.10,2013-01-12 17:33:00,
2013-01-12 09:48:00,41.5,24.0,30.20,West,262,0.0,3.0,51,0.00,,,0.00,weatherlink.com 1.10,2013-01-12 17:48:00,
2013-01-12 10:03:00,44.0,24.0,30.20,ESE,113,0.0,1.0,46,0.00,,,0.00,weatherlink.com 1.10,2013-01-12 18:03:00,
2013-01-12 10:18:00,43.6,20.0,30.20,East,79,2.0,7.0,39,0.00,,,0.00,weatherlink.com 1.10,2013-01-12 18:18:00,
2013-01-12 10:33:00,44.7,21.0,30.20,NNE,20,1.0,5.0,39,0.00,,,0.00,weatherlink.com 1.10,2013-01-12 18:33:00,
2013-01-12 10:48:00,44.6,18.0,30.20,NNW,334,0.0,6.0,35,0.00,,,0.00,weatherlink.com 1.10,2013-01-12 18:48:00,
2013-01-12 11:03:00,45.3,18.0,30.19,ESE,108,3.0,4.0,34,0.00,,,0.00,weatherlink.com 1.10,2013-01-12 19:03:00,
2013-01-12 11:18:00,45.9,17.0,30.18,East,87,2.0,7.0,31,0.00,,,0.00,weatherlink.com 1.10,2013-01-12 19:18:00,
2013-01-12 11:33:00,47.7,17.0,30.17,SE,143,2.0,4.0,29,0.00,,,0.00,weatherlink.com 1.10,2013-01-12 19:33:00,
2013-01-12 11:48:00,47.9,17.0,30.15,WSW,240,2.0,5.0,29,0.00,,,0.00,weatherlink.com 1.10,2013-01-12 19:48:00,
2013-01-12 12:03:00,47.0,15.0,30.15,SE,125,2.0,5.0,28,0.00,,,0.00,weatherlink.com 1.10,2013-01-12 20:03:00,
2013-01-12 12:18:00,47.3,16.0,30.14,ESE,115,2.0,4.0,29,0.00,,,0.00,weatherlink.com 1.10,2013-01-12 20:18:00,
2013-01-12 12:33:00,48.1,12.0,30.13,West,266,0.0,6.0,23,0.00,,,0.00,weatherlink.com 1.10,2013-01-12 20:33:00,
2013-01-12 12:48:00,49.2,13.0,30.13,WSW,238,3.0,4.0,23,0.00,,,0.00,weatherlink.com 1.10,2013-01-12 20:48:00,
2013-01-12 13:03:00,49.6,15.0,30.13,WSW,240,0.0,4.0,25,0.00,,,0.00,weatherlink.com 1.10,2013-01-12 21:03:00,
2013-01-12 13:18:00,49.7,14.0,30.12,SW,218,1.0,6.0,24,0.00,,,0.00,weatherlink.com 1.10,2013-01-12 21:18:00,
2013-01-12 13:33:00,49.7,12.0,30.12,SSW,200,4.0,5.0,22,0.00,,,0.00,weatherlink.com 1.10,2013-01-12 21:33:00,
2013-01-12 13:48:00,49.5,9.0,30.12,NNW,345,0.0,5.0,19,0.00,,,0.00,weatherlink.com 1.10,2013-01-12 21:48:00,
2013-01-12 14:03:00,49.4,7.0,30.12,ENE,73,2.0,5.0,18,0.00,,,0.00,weatherlink.com 1.10,2013-01-12 22:03:00,
2013-01-12 14:18:00,50.5,9.0,30.12,WNW,302,5.0,6.0,19,0.00,,,0.00,weatherlink.com 1.10,2013-01-12 22:18:00,
2013-01-12 14:33:00,49.4,7.0,30.12,WSW,250,4.0,8.0,18,0.00,,,0.00,weatherlink.com 1.10,2013-01-12 22:33:00,
2013-01-12 14:48:00,49.9,8.0,30.12,NNW,327,2.0,6.0,18,0.00,,,0.00,weatherlink.com 1.10,2013-01-12 22:48:00,
2013-01-12 15:03:00,50.3,7.0,30.11,NE,55,0.0,4.0,17,0.00,,,0.00,weatherlink.com 1.10,2013-01-12 23:03:00,
2013-01-12 15:18:00,50.6,6.0,30.11,NNW,333,2.0,8.0,16,0.00,,,0.00,weatherlink.com 1.10,2013-01-12 23:18:00,
2013-01-12 15:33:00,50.0,5.0,30.11,NNW,333,1.0,5.0,16,0.00,,,0.00,weatherlink.com 1.10,2013-01-12 23:33:00,
2013-01-12 15:48:00,50.0,5.0,30.11,WNW,285,4.0,6.0,16,0.00,,,0.00,weatherlink.com 1.10,2013-01-12 23:48:00,
2013-01-12 16:03:00,49.8,5.0,30.11,WNW,290,1.0,6.0,16,0.00,,,0.00,weatherlink.com 1.10,2013-01-13 00:03:00,
2013-01-12 16:18:00,49.8,4.0,30.11,WNW,285,4.0,6.0,15,0.00,,,0.00,weatherlink.com 1.10,2013-01-13 00:18:00,
2013-01-12 16:33:00,49.1,4.0,30.11,WSW,246,0.0,5.0,16,0.00,,,0.00,weatherlink.com 1.10,2013-01-13 00:33:00,
2013-01-12 16:48:00,48.5,7.0,30.11,WNW,294,3.0,3.0,18,0.00,,,0.00,weatherlink.com 1.10,2013-01-13 00:48:00,
2013-01-12 17:03:00,47.1,9.0,30.11,West,278,2.0,4.0,21,0.00,,,0.00,weatherlink.com 1.10,2013-01-13 01:03:00,
2013-01-12 17:18:00,46.2,10.0,30.11,West,280,0.0,2.0,23,0.00,,,0.00,weatherlink.com 1.10,2013-01-13 01:18:00,
2013-01-12 17:48:00,44.3,11.0,30.12,WNW,283,0.0,1.0,26,0.00,,,0.00,weatherlink.com 1.10,2013-01-13 01:48:00,
2013-01-12 18:03:00,43.8,12.0,30.12,NW,311,0.0,2.0,27,0.00,,,0.00,weatherlink.com 1.10,2013-01-13 02:03:00,
2013-01-12 18:18:00,43.3,18.0,30.13,WNW,302,1.0,8.0,36,0.00,,,0.00,weatherlink.com 1.10,2013-01-13 02:18:00,
2013-01-12 18:33:00,42.7,20.0,30.13,NNW,329,2.0,4.0,40,0.00,,,0.00,weatherlink.com 1.10,2013-01-13 02:33:00,
2013-01-12 18:48:00,42.6,22.0,30.13,NNW,346,1.0,5.0,45,0.00,,,0.00,weatherlink.com 1.10,2013-01-13 02:48:00,
2013-01-12 19:03:00,42.3,25.0,30.13,NW,304,3.0,3.0,50,0.00,,,0.00,weatherlink.com 1.10,2013-01-13 03:03:00,
2013-01-12 19:18:00,42.3,25.0,30.13,NW,304,1.0,5.0,51,0.00,,,0.00,weatherlink.com 1.10,2013-01-13 03:18:00,
2013-01-12 19:33:00,42.0,25.0,30.13,NNW,346,2.0,3.0,51,0.00,,,0.00,weatherlink.com 1.10,2013-01-13 03:33:00,
2013-01-12 19:48:00,41.4,25.0,30.13,North,350,0.0,3.0,52,0.00,,,0.00,weatherlink.com 1.10,2013-01-13 03:48:00,
2013-01-12 20:03:00,40.6,24.0,30.14,East,84,1.0,2.0,53,0.00,,,0.00,weatherlink.com 1.10,2013-01-13 04:03:00,
2013-01-12 20:18:00,39.7,25.0,30.14,ENE,61,1.0,4.0,55,0.00,,,0.00,weatherlink.com 1.10,2013-01-13 04:18:00,
2013-01-12 20:34:00,39.5,24.0,30.15,North,4,0.0,1.0,54,0.00,,,0.00,weatherlink.com 1.10,2013-01-13 04:34:00,
2013-01-12 20:49:00,39.4,23.0,30.15,NNE,20,0.0,2.0,53,0.00,,,0.00,weatherlink.com 1.10,2013-01-13 04:49:00,
2013-01-12 21:04:00,38.6,23.0,30.15,NNE,20,0.0,0.0,54,0.00,,,0.00,weatherlink.com 1.10,2013-01-13 05:04:00,
2013-01-12 21:19:00,37.4,23.0,30.15,East,98,0.0,1.0,57,0.00,,,0.00,weatherlink.com 1.10,2013-01-13 05:19:00,
2013-01-12 21:34:00,37.5,23.0,30.16,East,98,0.0,0.0,57,0.00,,,0.00,weatherlink.com 1.10,2013-01-13 05:34:00,
2013-01-12 21:49:00,36.7,23.0,30.16,East,88,1.0,1.0,59,0.00,,,0.00,weatherlink.com 1.10,2013-01-13 05:49:00,
2013-01-12 22:04:00,35.8,22.0,30.16,East,79,0.0,1.0,58,0.00,,,0.00,weatherlink.com 1.10,2013-01-13 06:04:00,
2013-01-12 22:19:00,35.3,21.0,30.16,ENE,69,0.0,1.0,57,0.00,,,0.00,weatherlink.com 1.10,2013-01-13 06:19:00,
2013-01-12 22:34:00,34.7,21.0,30.15,ENE,69,0.0,1.0,58,0.00,,,0.00,weatherlink.com 1.10,2013-01-13 06:34:00,
2013-01-12 22:49:00,33.8,21.0,30.15,ENE,69,0.0,0.0,61,0.00,,,0.00,weatherlink.com 1.10,2013-01-13 06:49:00,
2013-01-12 23:04:00,33.1,21.0,30.16,ENE,70,0.0,0.0,62,0.00,,,0.00,weatherlink.com 1.10,2013-01-13 07:04:00,
2013-01-12 23:19:00,32.2,21.0,30.16,ENE,70,0.0,0.0,64,0.00,,,0.00,weatherlink.com 1.10,2013-01-13 07:19:00,
2013-01-12 23:34:00,33.2,22.0,30.16,NE,41,0.0,2.0,64,0.00,,,0.00,weatherlink.com 1.10,2013-01-13 07:34:00,
2013-01-12 23:49:00,33.3,22.0,30.15,NE,37,0.0,1.0,63,0.00,,,0.00,weatherlink.com 1.10,2013-01-13 07:49:00,